Change the Weather History Date:

Wednesday, July 10, 2013

  Actual Average Record
Temperature  
Mean Temperature 90 °F 83 °F  
Max Temperature 102 °F 93 °F 107 °F (2011)
Min Temperature 78 °F 73 °F 59 °F (1961)
Cooling Degree Days 25 18  
Month to date cooling degree days 150 170  
Year to date cooling degree days 773 783  
Since 1 June cooling degree days 581 549  
Growing Degree Days 40 (Base 50)    
Moisture  
Dew Point 67 °F    
Average Humidity 49    
Maximum Humidity 65    
Minimum Humidity 33    
Precipitation  
Precipitation 0.00 in 0.12 in 2.20 in (1906)
Month to date precipitation T 1.21  
Year to date precipitation 15.57 22.43  
Sea Level Pressure  
Sea Level Pressure 29.91 in    
Wind  
Wind Speed 6 mph (WSW)    
Max Wind Speed 15 mph    
Max Gust Speed 18 mph    
Visibility 10 miles    
Events      
T = Trace of Precipitation, MM = Missing Value Source: NWS Daily Summary

Daily Weather History Graph

Daily Weather History Graph

Search for Another Location

Airport or City:

Trip Planner

Search our weather history database for the weather conditions in past years. The results will help you decide how hot, cold, wet, or windy it might be!

Date:

Astronomy

Jul. 10, 2013 Rise Set
Actual Time 6:14 AM CDT 8:42 PM CDT
Civil Twilight 5:44 AM CDT 9:12 PM CDT
Nautical Twilight 5:08 AM CDT 9:49 PM CDT
Astronomical Twilight 4:27 AM CDT 10:30 PM CDT
Moon 8:31 AM CDT (7/10) 9:59 PM CDT (7/10)
Length of Visible Light 15h 27m
Length of Day
14h 28m
Waxing Crescent, 5% of the Moon is Illuminated
Jul 10
Waxing Crescent
Jul 15
First Quarter
Jul 22
Full
Jul 29
Last Quarter
Aug 6
New

Hourly Weather History & Observations

Time (CDT) Temp. Heat Index Dew Point Humidity Pressure Visibility Wind Dir Wind Speed Gust Speed Precip Events Conditions
12:53 AM 87.1 °F 89.2 °F 66.0 °F 49% 29.94 in 10.0 mi South 11.5 mph - N/A   Mostly Cloudy
1:53 AM 86.0 °F 87.6 °F 64.9 °F 49% 29.93 in 10.0 mi South 10.4 mph - N/A   Overcast
2:53 AM 86.0 °F 87.3 °F 64.0 °F 48% 29.92 in 10.0 mi SSW 12.7 mph - N/A   Mostly Cloudy
3:53 AM 82.0 °F 83.8 °F 64.9 °F 56% 29.94 in 10.0 mi Calm Calm - N/A   Overcast
4:53 AM 80.1 °F 81.9 °F 64.9 °F 60% 29.94 in 10.0 mi SE 3.5 mph - N/A   Mostly Cloudy
5:53 AM 81.0 °F 82.7 °F 64.9 °F 58% 29.94 in 10.0 mi Calm Calm - N/A   Mostly Cloudy
6:53 AM 82.0 °F 83.8 °F 64.9 °F 56% 29.93 in 10.0 mi SSE 5.8 mph - N/A   Mostly Cloudy
7:53 AM 84.0 °F 85.8 °F 64.9 °F 53% 29.94 in 10.0 mi South 6.9 mph - N/A   Mostly Cloudy
8:53 AM 86.0 °F 87.6 °F 64.9 °F 49% 29.96 in 10.0 mi South 5.8 mph - N/A   Scattered Clouds
9:53 AM 88.0 °F 89.6 °F 64.9 °F 46% 29.95 in 10.0 mi SSW 9.2 mph - N/A   Scattered Clouds
10:53 AM 91.9 °F 94.5 °F 66.0 °F 42% 29.95 in 10.0 mi Variable 4.6 mph - N/A   Scattered Clouds
11:53 AM 95.0 °F 97.9 °F 66.0 °F 38% 29.95 in 10.0 mi WSW 8.1 mph - N/A   Scattered Clouds
12:53 PM 99.0 °F 103.5 °F 66.9 °F 35% 29.93 in 10.0 mi North 5.8 mph - N/A   Scattered Clouds
1:53 PM 100.0 °F 104.9 °F 66.9 °F 34% 29.92 in 10.0 mi North 9.2 mph - N/A   Mostly Cloudy
2:53 PM 99.0 °F 104.2 °F 68.0 °F 36% 29.91 in 10.0 mi WNW 9.2 mph - N/A   Mostly Cloudy
3:53 PM 99.0 °F 102.9 °F 66.0 °F 34% 29.89 in 10.0 mi WSW 6.9 mph - N/A   Scattered Clouds
4:53 PM 100.9 °F 105.3 °F 66.0 °F 32% 29.86 in 10.0 mi Calm Calm - N/A   Scattered Clouds
5:53 PM 100.0 °F 104.2 °F 66.0 °F 33% 29.86 in 10.0 mi WNW 8.1 mph - N/A   Mostly Cloudy
6:53 PM 98.1 °F 101.2 °F 64.9 °F 34% 29.85 in 10.0 mi West 6.9 mph - N/A   Mostly Cloudy
7:53 PM 91.9 °F 98.4 °F 71.1 °F 50% 29.86 in 10.0 mi NW 6.9 mph - N/A   Mostly Cloudy
8:53 PM 91.0 °F 96.6 °F 70.0 °F 50% 29.87 in 10.0 mi Calm Calm - N/A   Mostly Cloudy
9:53 PM 89.1 °F 94.1 °F 70.0 °F 53% 29.89 in 10.0 mi West 3.5 mph - N/A   Scattered Clouds
10:53 PM 84.9 °F 90.1 °F 71.1 °F 63% 29.91 in 10.0 mi NW 3.5 mph - N/A   Scattered Clouds
11:53 PM 84.0 °F 89.6 °F 72.0 °F 67% 29.89 in 10.0 mi Calm Calm - N/A   Clear